Tunica, MS

7:29 AM CDT on March 23, 2017 (GMT -0500)
Tunica

Weather History for KUTA - March, 2014

Change the Weather History Date:

Wednesday, March 12, 2014

  Actual Average (KAWM) Record (KAWM)
Temperature  
Mean Temperature 50 °F -  
Max Temperature 62 °F 61 °F 82 °F (2006)
Min Temperature 39 °F 42 °F 26 °F (1987)
Degree Days  
Heating Degree Days 14    
Moisture  
Dew Point 38 °F    
Average Humidity 62    
Maximum Humidity 94    
Minimum Humidity 33    
Precipitation  
Precipitation 0.00 in - - ()
Sea Level Pressure  
Sea Level Pressure 29.94 in    
Wind  
Wind Speed 17 mph (NW)    
Max Wind Speed 33 mph    
Max Gust Speed 43 mph    
Visibility 10 miles    
Events      
Averages and records for this station are not official NWS values.
T = Trace of Precipitation, MM = Missing Value Source: NWS Daily Summary

Daily Weather History Graph

Daily Weather History Graph

Search for Another Location

Airport or City:

Trip Planner

Search our weather history database for the weather conditions in past years. The results will help you decide how hot, cold, wet, or windy it might be!

Date:

Astronomy

Mar. 12, 2014 Rise Set
Actual Time 7:16 AM CDT 7:06 PM CDT
Civil Twilight 6:50 AM CDT 7:31 PM CDT
Nautical Twilight 6:21 AM CDT 8:01 PM CDT
Astronomical Twilight 5:52 AM CDT 8:30 PM CDT
Moon 3:44 PM CDT (3/12) 4:40 AM CDT (3/12)
Length of Visible Light 12h 40m
Length of Day
11h 50m
Waxing Gibbous, 85% of the Moon is Illuminated
Mar 12
Waxing Gibbous
Mar 16
Full
Mar 23
Last Quarter
Mar 30
New
Apr 7
First Quarter

Hourly Weather History & Observations

Time (CDT) Temp. Windchill Dew Point Humidity Pressure Visibility Wind Dir Wind Speed Gust Speed Precip Events Conditions
12:15 AM 62.6 °F - 60.8 °F 94% 29.64 in 10.0 mi South 9.2 mph - N/A   Overcast
12:35 AM 62.6 °F - 60.8 °F 94% 29.64 in 10.0 mi South 11.5 mph - N/A   Overcast
12:55 AM 62.6 °F - 59.0 °F 88% 29.63 in 10.0 mi SSW 11.5 mph - N/A   Overcast
1:15 AM 60.8 °F - 59.0 °F 94% 29.63 in 10.0 mi SSW 11.5 mph - N/A   Overcast
1:35 AM 60.8 °F - 59.0 °F 94% 29.62 in 7.0 mi SSW 11.5 mph 18.4 mph N/A   Overcast
1:55 AM 60.8 °F - 59.0 °F 94% 29.62 in 10.0 mi SSW 10.4 mph - N/A   Overcast
2:15 AM 60.8 °F - 59.0 °F 94% 29.62 in 7.0 mi SSW 12.7 mph - N/A   Overcast
2:35 AM 60.8 °F - 59.0 °F 94% 29.61 in 10.0 mi SSW 10.4 mph - N/A   Overcast
2:55 AM 60.8 °F - 59.0 °F 94% 29.61 in 7.0 mi SSW 11.5 mph - N/A   Overcast
3:15 AM 60.8 °F - 59.0 °F 94% 29.60 in 7.0 mi SSW 13.8 mph - N/A   Overcast
3:35 AM 60.8 °F - 59.0 °F 94% 29.60 in 10.0 mi SW 16.1 mph - N/A   Overcast
3:55 AM 60.8 °F - 59.0 °F 94% 29.61 in 10.0 mi SW 15.0 mph - N/A   Overcast
4:15 AM 60.8 °F - 59.0 °F 94% 29.62 in 10.0 mi SW 16.1 mph 21.9 mph N/A   Overcast
4:35 AM 60.8 °F - 59.0 °F 94% 29.63 in 10.0 mi WSW 18.4 mph - N/A   Mostly Cloudy
4:55 AM 60.8 °F - 57.2 °F 88% 29.64 in 10.0 mi West 15.0 mph - N/A   Mostly Cloudy
5:15 AM 60.8 °F - 55.4 °F 82% 29.65 in 10.0 mi West 18.4 mph 25.3 mph N/A   Mostly Cloudy
5:35 AM 60.8 °F - 53.6 °F 77% 29.68 in 10.0 mi WNW 24.2 mph - N/A   Mostly Cloudy
5:55 AM 55.4 °F - 46.4 °F 72% 29.71 in 10.0 mi NW 28.8 mph 36.8 mph N/A   Overcast
6:15 AM 53.6 °F - 44.6 °F 72% 29.75 in 10.0 mi NW 33.4 mph 36.8 mph N/A   Mostly Cloudy
6:35 AM 51.8 °F - 42.8 °F 71% 29.77 in 10.0 mi NW 29.9 mph 38.0 mph N/A   Mostly Cloudy
6:55 AM 50.0 °F - 41.0 °F 71% 29.80 in 10.0 mi NW 28.8 mph 39.1 mph N/A   Mostly Cloudy
7:15 AM 50.0 °F - 39.2 °F 66% 29.82 in 10.0 mi NW 26.5 mph 36.8 mph N/A   Mostly Cloudy
7:35 AM 48.2 °F - 39.2 °F 71% 29.83 in 10.0 mi NNW 32.2 mph 42.6 mph N/A   Mostly Cloudy
7:55 AM 46.4 °F 36.9 °F 37.4 °F 71% 29.85 in 10.0 mi NNW 32.2 mph 39.1 mph N/A   Mostly Cloudy
8:15 AM 46.4 °F 37.7 °F 35.6 °F 66% 29.87 in 10.0 mi NNW 26.5 mph 32.2 mph N/A   Overcast
8:35 AM 46.4 °F 37.5 °F 35.6 °F 66% 29.89 in 10.0 mi NNW 27.6 mph 34.5 mph N/A   Overcast
8:55 AM 46.4 °F 37.7 °F 33.8 °F 62% 29.91 in 10.0 mi NNW 26.5 mph 34.5 mph N/A   Overcast
9:15 AM 46.4 °F 37.7 °F 33.8 °F 62% 29.92 in 10.0 mi NNW 26.5 mph 39.1 mph N/A   Overcast
9:35 AM 46.4 °F 37.2 °F 33.8 °F 62% 29.94 in 10.0 mi NNW 29.9 mph 38.0 mph N/A   Overcast
9:55 AM 46.4 °F 37.0 °F 33.8 °F 62% 29.95 in 10.0 mi NNW 31.1 mph 34.5 mph N/A   Overcast
10:15 AM 46.4 °F 37.7 °F 33.8 °F 62% 29.97 in 10.0 mi North 26.5 mph 36.8 mph N/A   Mostly Cloudy
10:35 AM 50.0 °F - 33.8 °F 54% 29.98 in 10.0 mi North 31.1 mph 35.7 mph N/A   Scattered Clouds
10:55 AM 50.0 °F - 33.8 °F 54% 29.98 in 10.0 mi NNW 33.4 mph 39.1 mph N/A   Scattered Clouds
11:15 AM 50.0 °F - 33.8 °F 54% 30.00 in 10.0 mi NNW 23.0 mph 35.7 mph N/A   Mostly Cloudy
11:35 AM 48.2 °F - 33.8 °F 58% 30.01 in 10.0 mi NNW 28.8 mph 36.8 mph N/A   Overcast
11:55 AM 50.0 °F - 33.8 °F 54% 30.03 in 10.0 mi NNW 27.6 mph 34.5 mph N/A   Overcast
12:15 PM 51.8 °F - 33.8 °F 50% 30.03 in 10.0 mi NNW 24.2 mph 33.4 mph N/A   Mostly Cloudy
12:35 PM 50.0 °F - 33.8 °F 54% 30.04 in 10.0 mi NW 20.7 mph 32.2 mph N/A   Overcast
12:55 PM 50.0 °F - 32.0 °F 50% 30.05 in 10.0 mi NW 25.3 mph 29.9 mph N/A   Overcast
1:15 PM 51.8 °F - 32.0 °F 47% 30.04 in 10.0 mi NNW 25.3 mph 33.4 mph N/A   Scattered Clouds
1:35 PM 51.8 °F - 32.0 °F 47% 30.05 in 10.0 mi NNW 23.0 mph 32.2 mph N/A   Scattered Clouds
1:55 PM 51.8 °F - 32.0 °F 47% 30.05 in 10.0 mi NNW 24.2 mph 33.4 mph N/A   Scattered Clouds
2:15 PM 51.8 °F - 32.0 °F 47% 30.05 in 10.0 mi NW 21.9 mph 33.4 mph N/A   Scattered Clouds
2:35 PM 51.8 °F - 30.2 °F 44% 30.05 in 10.0 mi NNW 25.3 mph 29.9 mph N/A   Scattered Clouds
2:55 PM 51.8 °F - 28.4 °F 41% 30.06 in 10.0 mi NW 25.3 mph 33.4 mph N/A   Scattered Clouds
3:15 PM 53.6 °F - 30.2 °F 41% 30.06 in 10.0 mi NNW 23.0 mph 29.9 mph N/A   Scattered Clouds
3:35 PM 53.6 °F - 28.4 °F 38% 30.07 in 10.0 mi NNW 25.3 mph 29.9 mph N/A   Clear
3:55 PM 51.8 °F - 26.6 °F 38% 30.08 in 10.0 mi NW 20.7 mph 33.4 mph N/A   Scattered Clouds
4:15 PM 53.6 °F - 26.6 °F 35% 30.08 in 10.0 mi NNW 18.4 mph 28.8 mph N/A   Scattered Clouds
4:35 PM 53.6 °F - 26.6 °F 35% 30.08 in 10.0 mi NNW 23.0 mph 32.2 mph N/A   Clear
4:55 PM 53.6 °F - 26.6 °F 35% 30.09 in 10.0 mi NNW 17.3 mph 25.3 mph N/A   Clear
5:15 PM 53.6 °F - 24.8 °F 33% 30.09 in 10.0 mi NNW 21.9 mph 31.1 mph N/A   Clear
5:35 PM 51.8 °F - 23.0 °F 33% 30.10 in 10.0 mi NNW 21.9 mph 27.6 mph N/A   Clear
5:55 PM 51.8 °F - 24.8 °F 35% 30.10 in 10.0 mi NNW 15.0 mph 25.3 mph N/A   Clear
6:15 PM 51.8 °F - 23.0 °F 33% 30.10 in 10.0 mi NNW 17.3 mph 23.0 mph N/A   Clear
6:35 PM 50.0 °F - 24.8 °F 37% 30.11 in 10.0 mi North 17.3 mph - N/A   Clear
6:55 PM 50.0 °F - 26.6 °F 40% 30.11 in 10.0 mi NNW 13.8 mph - N/A   Clear
7:15 PM 46.4 °F 41.5 °F 26.6 °F 46% 30.12 in 10.0 mi NNW 10.4 mph - N/A   Clear
7:35 PM 44.6 °F 39.2 °F 28.4 °F 53% 30.13 in 10.0 mi NNW 10.4 mph - N/A   Clear
7:55 PM 42.8 °F 38.0 °F 28.4 °F 57% 30.13 in 10.0 mi NNW 8.1 mph - N/A   Clear
8:15 PM 41.0 °F 36.4 °F 28.4 °F 61% 30.14 in 10.0 mi NNW 6.9 mph - N/A   Clear
8:35 PM 44.6 °F 42.2 °F 28.4 °F 53% 30.15 in 10.0 mi NW 4.6 mph - N/A   Clear
8:55 PM 42.8 °F 38.0 °F 26.6 °F 53% 30.16 in 10.0 mi NNW 8.1 mph - N/A   Clear
9:15 PM 42.8 °F 38.6 °F 26.6 °F 53% 30.16 in 10.0 mi NW 6.9 mph - N/A   Clear
9:35 PM 42.8 °F 39.3 °F 26.6 °F 53% 30.17 in 10.0 mi NW 5.8 mph - N/A   Clear
9:55 PM 41.0 °F 36.4 °F 26.6 °F 57% 30.18 in 10.0 mi NW 6.9 mph - N/A   Clear
10:15 PM 41.0 °F 37.1 °F 28.4 °F 61% 30.19 in 10.0 mi NNW 5.8 mph - N/A   Clear
10:35 PM 41.0 °F 36.4 °F 28.4 °F 61% 30.20 in 10.0 mi NW 6.9 mph - N/A   Clear
10:55 PM 41.0 °F 36.4 °F 26.6 °F 57% 30.20 in 10.0 mi NW 6.9 mph - N/A   Clear
11:15 PM 41.0 °F 35.8 °F 28.4 °F 61% 30.20 in 10.0 mi NW 8.1 mph - N/A   Clear
11:35 PM 39.2 °F 34.2 °F 28.4 °F 65% 30.20 in 10.0 mi NNW 6.9 mph - N/A   Clear
11:55 PM 41.0 °F 38.0 °F 28.4 °F 61% 30.20 in 10.0 mi NNW 4.6 mph - N/A   Clear